Theta_e
321 322 322 323 323 322 320 319 318 318 314 315 314 314 314 313 311 311 312 312 311 311 311 313 316 316 317 317 321 322 322 323 323 325 328 329 329 330 331 331 331 332 332 331 334 335 336 336 337 340 345 344 343 341
322 322 321 322 321 321 320 319 318 318 316 315 314 314 313 312 311 311 311 312 311 310 311 311 311 312 312 314 317 319 321 323 324 327 328 331 331 330 332 332 331 335 332 333 333 333 337 335 339 340 340 342 342 344
320 320 321 323 321 320 320 318 318 317 316 316 315 314 313 312 311 311 310 311 310 310 310 312 314 316 316 314 314 317 319 319 320 322 325 327 331 333 335 333 332 332 333 333 334 334 335 333 333 334 335 337 340 344
319 320 320 320 321 320 319 319 317 316 316 315 314 314 313 312 311 310 310 310 309 309 308 313 316 316 316 317 316 315 315 318 320 321 323 325 329 329 333 333 336 334 334 334 335 334 333 332 331 331 334 335 338 343
319 319 319 319 319 319 318 318 317 316 315 314 313 313 312 312 311 310 310 309 309 309 311 312 312 318 318 317 317 318 317 316 318 321 323 324 326 328 329 332 334 333 334 333 332 333 333 332 331 334 335 335 338 343
319 319 319 319 319 318 317 316 316 315 315 313 312 311 311 312 311 310 311 313 310 309 307 311 316 316 319 321 321 318 319 318 318 320 323 322 322 325 329 333 332 330 331 331 333 333 334 334 333 335 337 337 339 345
319 319 319 318 317 318 317 316 315 315 315 313 312 311 313 312 310 309 313 312 311 309 308 311 317 319 320 320 322 322 320 319 319 320 321 322 323 323 327 331 332 330 331 330 331 331 331 332 334 337 339 341 347 350
318 318 318 317 317 316 316 315 314 314 313 312 312 312 312 310 309 307 308 308 309 309 309 312 318 320 322 322 321 321 321 321 321 321 322 323 322 323 328 329 328 330 331 332 332 331 329 335 341 347 348 348 349 351
318 318 317 317 316 315 315 313 311 311 310 310 311 311 309 310 310 311 311 310 308 309 311 314 320 323 321 323 322 321 321 323 322 325 324 323 324 324 326 328 329 330 333 334 334 332 334 341 343 347 345 345 347 349
317 317 316 316 315 314 314 313 312 311 310 311 311 312 315 313 312 310 310 309 308 308 308 311 315 320 319 319 324 325 321 327 328 326 323 324 324 323 324 326 329 331 332 335 335 338 340 342 342 341 341 342 343 345
316 315 315 314 314 313 312 311 310 310 311 313 313 313 312 310 311 312 315 312 311 312 311 313 316 317 318 321 322 322 326 326 329 327 326 325 325 324 323 325 328 327 329 334 335 337 336 342 342 342 342 344 345 346
314 312 312 312 310 309 308 309 309 310 311 310 308 309 309 310 312 315 316 317 315 318 317 318 318 318 317 318 323 323 324 327 330 328 326 328 325 323 323 324 326 326 327 328 332 333 333 334 333 336 342 346 345 346
312 309 308 307 306 308 308 308 310 311 308 308 307 307 310 311 314 316 319 319 318 318 317 316 318 317 319 320 322 323 324 325 326 331 330 329 336 328 324 324 325 326 326 327 331 332 331 330 331 329 334 336 342 346
307 305 305 306 307 308 309 310 310 309 308 309 311 316 315 317 317 317 316 318 317 316 316 316 319 320 320 321 323 325 325 326 328 330 330 336 331 333 336 330 326 325 326 331 336 331 333 331 337 334 333 335 339 341
305 305 305 307 309 310 310 309 309 309 310 311 311 316 314 315 315 315 313 317 317 316 317 317 321 321 322 322 322 326 328 328 324 327 330 330 331 331 334 335 330 326 327 334 336 337 337 337 337 338 338 339 340 341
305 306 308 309 310 309 309 308 308 308 309 311 311 312 312 314 315 316 316 317 316 316 317 317 320 322 323 323 324 326 326 328 327 329 327 328 330 333 336 333 329 329 333 336 337 337 337 337 337 337 337 338 339 340
306 308 309 309 308 309 308 307 308 308 309 311 312 312 311 312 313 313 314 314 316 318 317 316 320 319 318 322 325 325 326 326 325 326 329 330 331 333 336 335 336 337 337 337 336 336 335 334 334 333 334 334 336 337
308 308 309 308 308 307 308 307 308 309 311 311 312 312 312 312 312 312 312 313 314 315 317 317 315 319 319 322 322 323 322 321 324 327 328 330 331 331 332 332 333 333 333 332 331 331 331 331 331 330 330 329 329 330
308 309 308 308 307 307 309 309 310 310 310 311 311 311 311 312 312 312 313 313 314 315 316 317 318 321 322 322 323 321 320 320 322 325 326 326 326 328 330 331 331 331 330 329 328 328 328 328 327 326 326 326 326 326
308 308 307 307 306 309 309 310 310 311 312 311 311 312 312 312 312 313 314 314 314 316 317 320 322 321 320 321 320 320 319 319 324 324 324 326 325 325 327 328 330 330 329 328 328 327 327 325 325 325 325 325 325 326
307 307 307 307 307 308 309 309 310 310 310 311 312 312 313 314 314 314 314 314 315 315 317 317 318 320 319 321 322 320 318 319 320 321 322 325 325 325 327 326 327 327 326 326 326 325 325 325 324 324 324 324 324 325
307 306 307 307 309 309 308 309 310 310 310 311 312 313 313 314 317 317 316 316 316 316 319 321 320 319 319 319 318 322 318 318 319 321 324 325 324 325 325 326 326 325 325 324 324 325 325 325 325 323 324 323 323 323
306 306 308 308 309 308 308 310 310 311 312 313 314 315 315 316 315 316 317 319 320 320 321 321 321 321 320 321 321 320 321 317 319 320 323 324 324 323 324 327 325 325 324 324 324 324 324 323 324 324 323 322 323 322
305 309 309 309 308 309 310 310 310 312 313 315 316 318 318 318 318 319 319 316 317 318 318 319 318 319 320 320 321 321 322 319 319 318 322 323 324 325 325 326 326 325 325 325 325 326 326 325 323 323 322 322 322 323
308 307 307 304 309 310 311 311 313 314 316 316 317 318 318 318 321 320 320 317 318 316 317 318 319 320 320 320 320 321 321 321 321 320 322 321 323 323 322 323 325 325 326 326 326 326 326 326 324 324 323 322 323 323
310 307 308 310 311 312 313 314 314 314 315 316 316 315 316 318 320 321 322 319 318 318 318 318 319 318 321 321 321 322 322 322 321 321 322 322 319 322 322 323 323 323 323 323 324 325 325 326 324 324 323 322 322 322
309 308 309 309 310 311 313 312 313 314 314 315 315 317 318 319 321 320 318 318 317 317 316 318 318 319 319 321 322 323 322 321 321 322 321 321 321 320 321 322 322 322 322 323 323 324 325 325 325 323 323 322 321 321
308 309 311 311 311 311 311 312 313 314 314 313 314 315 315 317 317 314 314 316 317 318 319 320 319 321 322 322 323 322 322 322 321 321 321 320 320 320 321 321 321 322 323 324 323 324 324 325 326 325 324 323 323 322
309 309 309 311 310 311 312 313 314 313 311 310 311 311 311 311 312 315 317 319 319 320 320 321 323 322 322 323 322 323 321 319 318 320 320 320 320 320 320 320 321 320 321 322 321 323 325 326 326 325 325 324 324 324
310 309 309 311 312 314 312 311 311 311 310 309 310 310 311 315 317 318 318 318 320 322 322 323 322 320 319 322 323 322 323 322 321 320 320 321 321 321 322 322 322 323 324 324 323 321 322 323 324 324 324 325 325 325
307 309 310 310 311 312 312 313 314 314 313 313 314 312 314 316 319 320 320 321 322 322 323 322 322 322 321 323 323 324 323 321 323 323 322 321 322 324 325 324 325 325 325 324 323 323 323 323 323 324 324 322 322 322
309 310 312 314 314 314 314 316 319 320 320 319 318 319 319 319 319 320 320 320 321 322 322 324 324 325 325 324 324 324 322 323 323 324 323 322 322 324 325 325 325 325 325 323 324 323 323 324 323 322 324 325 325 324
315 314 315 315 317 318 319 320 320 319 317 318 318 319 319 317 318 319 320 319 319 319 321 321 322 324 325 324 325 325 324 323 321 320 320 322 322 322 323 324 324 324 324 324 324 322 322 324 324 322 322 323 325 325
Wind_Speed
18 18 21 21 19 19 19 18 18 17 16 16 15 15 16 15 14 14 11 12 12 9 33 19 7 12 14 16 11 13 9 13 7 10 12 11 12 16 19 20 24 18 17 12 14 17 16 9 17 16 7 10 11 18
18 20 21 20 18 19 20 20 19 18 17 17 18 16 16 15 13 14 17 7 13 23 28 38 38 37 36 33 24 17 19 11 7 6 5 6 11 13 15 13 17 19 18 14 15 16 15 3 9 8 5 5 4 5
19 20 22 18 18 19 19 18 18 18 17 17 17 16 18 16 13 14 19 19 17 18 27 20 23 18 19 20 32 25 18 17 18 12 7 5 5 7 9 13 14 13 15 13 19 10 4 8 5 2 2 4 3 3
19 19 20 18 19 18 18 17 17 16 17 17 18 17 17 17 18 18 20 21 15 9 5 10 8 15 6 11 15 26 31 17 12 10 11 7 7 5 10 14 12 8 14 11 12 4 5 4 4 3 3 3 3 2
19 20 19 18 17 17 17 16 16 17 16 17 17 18 18 19 18 21 26 23 21 15 5 17 32 8 10 18 21 18 21 25 20 13 9 9 12 12 11 13 11 11 7 11 11 10 13 12 5 2 5 9 7 5
18 17 17 18 18 18 17 16 17 18 18 18 19 18 17 18 18 19 7 1 9 17 4 4 11 15 6 5 9 19 19 20 21 18 10 14 23 8 7 11 15 23 13 11 2 5 7 7 8 9 11 12 10 11
18 18 18 18 18 19 19 18 19 20 20 19 19 19 19 20 18 13 7 2 3 9 4 5 6 3 7 4 6 11 16 16 19 22 19 18 17 16 11 13 15 16 7 4 11 4 5 7 11 11 14 11 11 14
21 21 22 21 21 19 17 19 20 19 19 20 19 19 23 22 17 15 14 23 10 8 4 3 5 10 9 4 4 10 11 16 16 20 16 12 18 18 10 15 25 8 13 6 9 9 10 7 4 8 11 14 18 21
23 23 22 21 19 19 20 19 20 20 20 16 18 20 13 2 4 3 2 3 13 8 4 4 5 3 6 3 3 2 6 6 11 10 13 12 13 13 11 16 16 11 12 3 5 5 10 8 11 14 17 19 21 22
25 22 21 21 20 20 21 20 20 20 15 13 9 4 6 2 2 5 3 5 11 6 7 4 13 12 14 7 3 6 5 4 4 10 15 15 15 23 26 20 13 6 5 3 10 9 11 15 15 16 18 19 20 21
22 21 20 21 20 20 20 21 17 11 6 3 3 2 3 5 3 5 5 6 7 4 7 7 11 8 8 7 7 5 2 3 5 9 11 10 12 18 26 25 9 9 6 4 7 11 2 21 21 14 16 17 17 17
24 22 21 20 22 24 21 12 8 5 4 5 10 9 7 3 5 4 3 4 5 3 6 3 6 8 7 8 6 5 3 3 6 8 4 15 9 25 27 28 20 12 7 5 7 12 17 11 19 20 14 11 15 12
26 23 21 19 19 10 5 6 7 6 6 5 2 3 4 3 4 5 4 3 2 2 3 4 5 5 5 6 3 3 4 5 9 4 4 2 11 2 26 30 25 20 12 6 14 13 19 10 7 9 10 7 7 12
21 14 12 12 5 3 6 6 4 2 2 4 5 4 5 5 5 3 3 2 3 5 12 14 8 4 7 5 2 4 5 3 3 4 5 5 11 10 6 7 12 24 14 11 15 13 16 17 14 15 14 13 12 14
9 9 4 3 2 3 3 4 3 2 3 4 4 4 4 2 3 4 5 7 4 7 12 11 8 4 2 3 3 4 4 4 4 4 3 11 10 7 9 14 19 27 15 19 24 26 27 19 18 19 16 15 14 13
3 3 4 5 6 2 1 2 4 3 3 4 6 6 7 9 2 8 7 6 5 8 10 4 3 2 2 3 3 4 2 3 3 3 8 11 8 6 8 15 18 24 30 20 19 21 22 23 20 20 18 16 15 14
8 5 7 6 3 3 4 3 4 5 4 5 6 8 9 9 9 9 8 9 6 6 2 3 3 2 3 4 2 2 1 4 12 14 5 9 11 12 16 19 21 24 27 29 23 20 21 19 16 16 16 14 13 13
5 6 6 4 2 2 4 4 4 5 7 8 7 7 6 10 10 10 9 10 7 6 3 1 3 2 3 3 3 3 6 17 15 9 14 17 18 19 22 23 23 23 22 23 22 20 19 18 16 14 14 13 12 11
7 5 5 4 3 2 3 5 5 3 7 9 9 10 10 11 12 14 13 9 8 5 2 3 4 2 2 2 2 6 15 14 12 9 9 13 16 17 17 20 21 21 21 21 19 17 16 15 14 14 13 11 9 8
5 5 4 3 3 2 3 3 4 5 4 4 11 7 6 10 9 14 10 8 8 3 3 3 0 2 1 4 8 7 12 17 11 7 2 4 6 14 14 13 16 17 17 17 16 16 16 15 14 13 12 11 10 9
3 3 3 2 1 4 4 3 4 5 7 6 5 8 7 8 8 18 7 7 7 3 3 5 3 8 2 3 3 7 10 15 13 8 8 8 10 11 12 15 12 12 13 14 14 14 13 13 13 12 12 10 9 8
2 3 2 1 3 3 4 4 4 6 5 8 8 2 3 4 4 5 5 4 3 4 5 8 9 5 3 3 3 2 5 10 9 12 11 8 12 12 13 11 13 14 13 9 11 11 12 11 11 11 10 9 9 9
2 1 2 3 2 3 4 2 2 2 3 3 3 2 1 3 5 3 3 2 3 6 4 4 6 4 4 5 4 3 3 3 6 8 7 8 8 8 9 3 10 13 15 13 11 11 12 10 10 10 10 9 8 7
1 2 3 3 4 3 1 1 2 3 4 3 3 3 0 2 5 7 2 1 1 4 6 7 7 7 5 5 4 2 4 4 4 8 6 8 10 8 6 5 6 6 8 10 8 9 9 8 9 8 9 9 8 7
3 1 3 3 3 2 1 2 3 3 3 2 3 2 2 1 2 1 3 5 4 2 5 8 11 10 8 6 5 2 1 4 3 8 5 1 4 6 3 3 4 6 9 9 8 8 6 8 8 9 9 10 9 8
1 4 2 0 2 2 2 2 2 3 3 2 2 4 3 3 2 1 3 5 5 6 10 13 11 11 11 6 7 8 5 2 3 7 6 7 10 1 3 9 8 6 6 6 6 7 8 8 8 8 9 9 9 8
2 1 2 2 2 2 3 5 7 2 2 3 4 4 3 3 3 2 3 6 12 14 14 12 11 10 8 8 6 3 5 6 6 8 3 5 8 10 8 8 7 7 4 5 7 7 8 11 9 10 9 9 8 11
2 2 0 2 0 2 3 4 2 3 4 6 6 5 6 6 3 5 11 19 13 11 9 7 7 7 6 6 4 3 2 3 5 6 8 9 10 10 11 12 11 11 8 7 9 8 8 10 10 11 14 13 11 12
1 1 3 2 2 3 3 2 5 6 5 5 2 2 3 5 12 12 14 8 9 8 6 6 8 5 6 5 4 3 4 3 4 6 7 6 10 11 12 11 11 9 9 11 13 13 4 9 9 9 7 11 12 13
4 5 3 2 3 2 2 1 2 4 2 6 4 5 5 7 10 16 16 10 8 7 7 7 6 6 6 5 4 2 2 3 5 4 3 3 2 0 2 6 8 8 8 8 11 11 13 10 14 13 10 4 5 8
1 1 1 2 3 7 7 5 6 6 6 4 4 5 7 7 14 15 15 14 13 12 10 11 11 9 6 2 3 3 1 2 2 2 3 2 0 1 1 4 6 7 6 8 9 11 12 11 12 13 13 15 16 18
4 3 3 2 3 6 2 2 2 3 6 4 5 5 7 6 10 18 23 21 18 16 19 16 17 14 8 5 4 3 2 1 1 1 3 3 1 1 1 4 4 5 6 7 8 5 5 5 3 8 9 9 9 11
1 2 0 3 2 1 3 2 5 10 16 13 8 5 8 8 6 13 19 22 21 22 17 16 14 15 16 14 9 10 11 9 8 8 7 6 4 5 5 5 3 4 4 7 9 8 11 11 11 10 10 15 13 8
Wind_Direction
304 307 308 300 301 298 300 304 304 306 313 313 318 320 321 319 319 317 301 282 254 259 291 286 279 301 286 257 259 291 314 213 253 244 243 238 251 247 244 221 202 203 208 209 228 241 247 101 179 231 62 50 13 9
305 307 308 305 308 307 300 296 300 304 305 308 313 315 317 313 314 302 298 293 283 243 265 287 284 273 259 250 271 271 278 311 322 297 266 269 249 254 254 244 226 198 218 216 223 220 237 305 84 72 60 93 319 11
309 307 311 307 305 301 301 301 300 304 299 302 305 310 312 306 304 293 290 295 285 281 294 281 289 290 253 246 226 246 251 264 276 283 311 301 285 319 272 242 242 216 216 231 224 201 153 184 131 124 18 1 12 329
313 307 308 308 307 305 306 305 305 299 301 301 302 306 311 307 302 297 287 291 266 267 284 291 295 291 275 243 229 225 236 266 286 278 272 279 283 257 282 305 303 302 222 212 250 243 191 160 228 228 218 263 273 280
308 308 307 308 309 309 305 300 296 297 297 299 299 300 304 305 302 298 297 280 257 228 284 296 308 312 252 235 232 227 228 233 250 272 253 249 258 280 277 273 270 258 269 210 233 224 231 251 255 282 290 275 250 201
304 308 312 310 310 307 300 295 296 301 299 303 303 301 301 305 307 308 314 268 239 228 256 285 300 288 251 234 228 217 224 226 231 244 252 261 260 293 261 247 247 261 253 288 348 98 28 344 309 289 273 259 229 197
302 302 305 304 301 302 300 298 298 297 300 305 306 299 299 300 292 252 281 223 248 190 249 283 273 213 194 270 224 219 216 223 227 235 242 263 262 215 261 265 262 262 273 252 302 306 274 267 267 253 246 217 182 169
295 297 302 301 300 302 299 300 299 297 301 303 300 301 303 302 285 263 264 246 237 196 242 269 273 242 198 164 204 196 216 213 222 239 238 235 235 249 252 245 257 269 290 274 250 253 261 253 214 206 168 164 158 154
293 294 294 295 293 296 299 298 300 304 308 306 303 303 303 238 216 243 301 206 204 214 268 245 276 355 311 136 185 253 228 209 237 219 234 242 227 222 220 246 241 238 258 270 242 245 232 158 164 156 151 151 147 146
290 288 287 288 289 295 298 297 302 305 307 313 319 258 209 192 181 286 242 176 194 229 234 255 264 272 291 296 229 188 202 244 241 230 229 223 240 223 231 224 215 214 223 244 203 170 183 148 148 138 146 141 143 143
286 286 289 288 287 287 291 296 301 312 356 335 278 310 355 313 277 221 218 198 183 228 214 244 255 270 291 270 246 259 213 283 258 232 218 228 219 226 220 228 198 184 219 185 93 142 297 169 147 118 102 123 132 141
287 287 290 285 287 288 286 283 273 306 239 262 275 275 273 218 222 243 238 176 199 258 180 244 279 248 248 238 233 216 251 264 255 324 243 237 232 204 211 220 225 217 202 187 217 176 114 54 108 102 99 112 119 131
284 280 281 281 287 288 271 239 260 267 279 290 294 232 211 202 232 234 238 140 283 226 208 289 282 214 245 230 252 206 242 234 301 243 226 207 25 214 204 204 210 204 209 207 173 139 126 194 126 108 70 70 112 133
278 276 274 285 274 221 222 243 234 218 279 232 227 221 227 193 223 59 334 302 293 262 295 299 270 217 209 185 228 238 211 189 249 242 234 56 353 325 321 230 197 194 176 162 139 149 171 143 161 133 162 162 163 155
258 270 252 210 191 156 158 166 193 262 254 252 219 244 245 125 180 195 249 264 308 291 319 302 280 221 183 232 234 275 224 222 229 231 321 322 310 269 254 210 209 184 173 164 154 147 137 134 126 126 134 135 133 131
209 150 179 176 169 192 224 267 272 229 247 247 239 237 260 261 223 240 265 303 345 326 326 273 280 287 232 286 240 247 300 272 311 326 289 283 264 224 211 176 172 166 168 158 143 134 125 129 134 129 125 121 125 133
160 164 184 173 220 254 262 246 225 219 235 232 239 239 258 282 285 292 287 310 316 315 357 295 297 348 306 258 254 283 222 289 316 305 330 131 131 127 115 123 129 133 131 131 136 129 123 123 124 116 114 120 128 130
162 177 190 211 247 259 223 213 234 229 238 253 264 268 257 270 278 272 278 276 281 295 135 307 309 264 276 296 279 334 339 326 349 55 58 76 92 104 116 119 119 120 121 121 128 127 129 128 124 125 128 132 130 134
176 191 217 235 202 206 224 208 227 254 253 257 264 272 274 265 264 269 264 249 252 262 303 232 232 239 270 289 334 12 5 357 328 20 35 80 87 91 96 110 115 118 119 119 120 122 123 127 129 130 130 129 130 139
196 198 202 194 200 221 245 215 211 246 265 255 269 271 301 289 275 265 249 236 198 202 228 235 144 98 22 36 30 22 19 23 64 21 316 176 101 107 100 108 112 115 116 116 118 121 121 121 124 127 129 126 125 128
149 187 181 153 200 231 274 272 239 279 301 284 304 311 308 306 283 282 249 211 199 213 239 262 301 148 143 10 23 28 35 25 26 16 358 152 165 129 111 120 115 126 126 126 126 131 130 131 133 136 132 125 123 128
196 163 147 221 234 212 266 247 271 307 284 293 308 306 257 297 276 326 305 183 198 234 349 333 322 330 273 275 314 323 44 46 33 46 33 87 137 149 152 152 152 139 130 134 138 136 129 137 146 150 150 139 135 126
135 176 223 222 227 225 266 241 268 258 266 276 264 230 239 233 228 283 275 8 23 352 349 23 17 18 345 330 287 225 259 21 27 46 55 76 98 140 156 185 150 144 146 145 135 126 122 130 158 155 155 158 154 138
193 239 233 207 201 269 321 284 256 262 256 259 270 273 152 183 179 183 147 97 65 23 25 14 9 358 353 359 32 59 182 5 9 14 23 74 122 127 166 191 132 151 149 143 136 135 147 158 152 167 168 179 179 179
258 219 190 264 222 242 229 247 246 241 265 311 297 318 325 294 259 178 133 170 187 258 348 336 337 330 315 291 300 306 205 210 195 242 337 292 36 151 107 49 126 154 166 163 170 180 177 168 177 186 190 189 191 190
269 201 161 282 164 234 286 288 303 341 311 300 300 324 317 291 293 118 86 78 62 8 333 324 320 320 309 300 289 272 238 213 227 215 218 244 229 259 216 204 204 195 196 209 203 195 194 209 187 180 190 190 202 196
242 162 187 187 256 261 274 262 276 320 326 333 346 339 324 293 39 48 30 6 334 313 309 305 299 302 293 303 308 276 245 263 251 230 236 221 229 223 253 253 237 238 240 213 214 220 200 217 220 194 191 188 185 203
299 312 284 222 351 276 283 300 335 359 23 20 0 8 343 345 330 324 313 318 312 314 305 298 295 282 281 288 300 291 260 243 237 233 243 243 239 236 233 235 240 251 234 221 220 226 229 218 229 215 209 210 223 203
288 5 351 299 280 256 234 332 19 42 31 14 334 286 272 262 285 330 18 10 5 5 356 337 339 318 300 291 305 256 233 242 190 219 240 262 279 237 226 229 231 242 240 234 226 213 218 201 213 212 201 214 227 228
48 32 24 328 320 23 52 32 7 56 305 291 286 278 285 320 17 34 35 33 9 343 335 334 322 345 350 350 22 341 192 220 210 202 278 303 258 276 159 207 211 215 220 220 210 211 211 213 212 209 218 219 225 239
330 338 296 287 294 282 289 307 282 266 278 298 284 255 286 316 22 23 36 44 40 27 16 27 25 31 34 39 16 38 61 157 208 212 216 122 74 194 144 199 203 198 192 205 197 205 206 211 216 222 233 231 237 239
187 220 240 227 228 303 298 244 176 189 154 108 51 38 37 30 27 25 16 25 42 56 40 37 35 35 25 20 12 351 330 227 30 115 134 143 190 243 224 171 197 186 180 195 206 208 213 218 244 278 243 218 221 228
179 155 312 348 317 197 203 233 133 101 80 98 116 60 85 76 35 17 29 34 28 36 36 33 37 34 31 32 42 41 60 69 100 106 119 141 143 124 54 53 116 194 212 198 214 198 219 221 230 239 235 233 230 207